CZ-2D DEB (43102 NORAD) Tracking and Keplerian Element Data

This shows tracking and keplerian element data for the satellite.

Feedback or suggestion? Click here.




ElementValue
Catalog43102
NameCZ-2D DEB
Epoch Orbit444
Epoch Day38.63933404
Epoch Year2018
RAAN115.0154
Inclination97.4665
Eccentricity0.0017446
Argument of Perigee39.3288
Mean Anonmoly320.9195
Mean Motion15.08426009
Decay Rate1.78E-06
L11 43102U 18002D 18038.63933404 .00000178 00000-0 15349-4 0 9995
L22 43102 97.4665 115.0154 0017446 39.3288 320.9195 15.08426009 4447

Live tracking and technical data element details for CZ-2D DEB (NORAD 43102). CZ-2D DEB can be tracked NOW for your location showing map with azimuth and elevation plus other details from your city location.

Track the satellite on the map from your city or location and see movement details for azimuth, elevation, latitude, longitude, range, height, and movement on the map or in text.







IsCatalogInMostPopularTable: catalog: 43102, numindb: 113
Update: records affected: 1



GetName: 43102 CZ-2D DEB

Hit Count: updated at: Wed, 14 Nov 2018 11:34:28 GMT